Extreme hitte van: 24-08-2019 09:00 tot: 26-08-2019 00:00 waarschuwing voor: Extreme hitte niveau: Geel info button

Weerstation Grootegast  Weerstation Grootegast


15 daagse weersverwachting Bad Ischl (AT)

  • Overzicht
  • Per uur
  • 15 dagen
  • Extra
  • Vergelijk
  • Kaarten
  • Dagkaart
  • Meer »
  • Info
  • Statistieken
  • Directe link
    Temp 6h Neerslag Wind  
 06:14     20:02    Daglengte: 13:48 Vandaag
08:00
17°
 
1
14:00
26°
 
1
20:00
21°
3.2 mm
1
warningclass
 06:16     20:00    Daglengte: 13:44 Morgen
02:00
17°
 
1
08:00
19°
 
1
14:00
26°
 
1
20:00
21°
7.8 mm
1
 06:17     19:58    Daglengte: 13:41 Maandag 26 Aug
02:00
17°
 
1
08:00
18°
 
1
14:00
25°
8.4 mm
2
warningclass
20:00
20°
25.1 mm
1
warningclass
 06:18     19:56    Daglengte: 13:38 Dinsdag 27 Aug
02:00
17°
 
1
Locatie info
Region: Oberösterreich
Latitude: 47.7120°N
Longitude: 13.6257°E
470 masl
Postcode: 4820
Temp/Neerslag /Baro Onweer/Dauwpunt
    Temp Baro 1h Neerslag Dauwpunt Wind UV Bewolking  
 06:14     20:02    Daglengte: 13:48 Vandaag
06:00
15°
1021.5 hPa   13.3°
1
Windvlaag: 1.3 m/s
45%
07:00
15°
1021.6 hPa   13.5°
1
Windvlaag: 1.2 m/s
48%
08:00
17°
1021.5 hPa   15.3°
1
Windvlaag: 1 m/s
54%
09:00
21°
1021.3 hPa   17.7°
1
Windvlaag: 0.9 m/s
48%
10:00
23°
1021.1 hPa   18.1°
1
Windvlaag: 0.9 m/s
36%
11:00
25°
1020.8 hPa   17.8°
1
Windvlaag: 1.2 m/s
35%
12:00
26°
1020.3 hPa
14%
17.0°
1
Windvlaag: 1.2 m/s
39%
13:00
26°
1020.0 hPa
14%
18.2°
1
Windvlaag: 1.2 m/s
46%
14:00
26°
1019.7 hPa
22%
18.9°
1
Windvlaag: 1 m/s
60%
15:00
26°
1019.2 hPa
63%
19.1°
1
Windvlaag: -1.2 m/s
71%
16:00
27°
1018.9 hPa 0.9 mm
68%
16.9°
1
Windvlaag: -1.6 m/s
67% warningclass
17:00
26°
1019.0 hPa
76%
17.7°
1
Windvlaag: -1.1 m/s
52%
18:00
24°
1019.2 hPa
78%
19.1°
1
Windvlaag: 0.2 m/s
65%
19:00
23°
1019.2 hPa 0.9 mm
73%
19.9°
1
Windvlaag: 0.4 m/s
57% warningclass
20:00
21°
1019.6 hPa 1.4 mm
82%
19.4°
1
Windvlaag: 0.4 m/s
63% warningclass
21:00
20°
1020.1 hPa
74%
18.3°
1
Windvlaag: 0.8 m/s
70%
22:00
20°
1020.0 hPa
17%
17.7°
1
Windvlaag: 0.9 m/s
48%
23:00
19°
1019.9 hPa
15%
16.6°
1
Windvlaag: 0.9 m/s
47%
 06:16     20:00    Daglengte: 13:44 Morgen
00:00
18°
1019.9 hPa
14%
16.0°
1
Windvlaag: 0.9 m/s
42%
01:00
18°
1019.8 hPa
14%
15.5°
1
Windvlaag: 1 m/s
45%
02:00
17°
1019.8 hPa
14%
15.3°
1
Windvlaag: 1 m/s
50%
03:00
17°
1019.7 hPa
14%
14.9°
1
Windvlaag: 0.9 m/s
61%
04:00
16°
1019.9 hPa
14%
14.6°
1
Windvlaag: 0.8 m/s
47%
05:00
16°
1019.9 hPa
14%
14.3°
1
Windvlaag: 0.8 m/s
45%
06:00
16°
1020.0 hPa
14%
14.1°
1
Windvlaag: 1 m/s
34%
07:00
16°
1020.1 hPa
14%
14.2°
1
Windvlaag: 1.1 m/s
33%
08:00
19°
1020.3 hPa
14%
15.7°
1
Windvlaag: 0.7 m/s
17%
09:00
21°
1020.1 hPa
14%
16.2°
1
Windvlaag: 0.9 m/s
15%
10:00
24°
1020.1 hPa
14%
16.1°
1
Windvlaag: 0.8 m/s
17%
11:00
25°
1019.8 hPa
14%
15.4°
0
Windvlaag: 0.7 m/s
23%
12:00
26°
1019.5 hPa
20%
15.3°
0
Windvlaag: 0.3 m/s
15%
13:00
27°
1018.9 hPa
26%
16.5°
1
Windvlaag: -0.2 m/s
13%
14:00
26°
1019.1 hPa
72%
18.5°
1
Windvlaag: -0.7 m/s
22%
15:00
25°
1019.0 hPa 2.0 mm
82%
18.6°
1
Windvlaag: -1.2 m/s
60% warningclass
16:00
25°
1018.9 hPa 1.5 mm
82%
18.7°
1
Windvlaag: -1.1 m/s
67% warningclass
17:00
24°
1018.8 hPa
77%
18.8°
1
Windvlaag: -0.8 m/s
44%
18:00
24°
1019.0 hPa
77%
19.4°
1
Windvlaag: -0.9 m/s
44%
19:00
23°
1019.6 hPa 2.1 mm
81%
19.4°
1
Windvlaag: -0.5 m/s
50% warningclass
20:00
21°
1020.1 hPa 2.1 mm
79%
18.4°
1
Windvlaag: -0.2 m/s
53%
21:00
20°
1020.7 hPa
72%
17.4°
1
Windvlaag: -0 m/s
61%
22:00
19°
1021.0 hPa
36%
17.2°
1
Windvlaag: 0.5 m/s
52%
23:00
18°
1020.8 hPa
42%
17.3°
1
Windvlaag: 0.5 m/s
56%
 06:17     19:58    Daglengte: 13:41 Maandag 26 Aug
00:00
17°
1020.7 hPa
32%
16.7°
1
Windvlaag: 0.4 m/s
45%
01:00
17°
1020.5 hPa
21%
16.1°
1
Windvlaag: 0.3 m/s
42%
02:00
17°
1020.2 hPa
21%
15.6°
1
Windvlaag: 0.2 m/s
28%
03:00
16°
1020.1 hPa
22%
15.2°
1
Windvlaag: 0.3 m/s
46%
04:00
16°
1020.1 hPa
21%
15.0°
1
Windvlaag: 0.5 m/s
31%
05:00
16°
1020.2 hPa
21%
14.7°
1
Windvlaag: 0.8 m/s
7%
06:00
16°
1020.0 hPa
21%
14.5°
1
Windvlaag: 0.5 m/s
14%
07:00
16°
1020.2 hPa
21%
14.7°
1
Windvlaag: 0.7 m/s
25%
08:00
18°
1020.3 hPa
21%
16.4°
1
Windvlaag: 0.5 m/s
17%
09:00
21°
1020.1 hPa
23%
18.1°
1
Windvlaag: 0.7 m/s
14%
10:00
23°
1020.0 hPa
21%
18.0°
1
Windvlaag: 0.5 m/s
20%
11:00
25°
1019.8 hPa
22%
17.6°
0
Windvlaag: 0.5 m/s
9%
12:00
26°
1019.2 hPa
22%
17.3°
1
Windvlaag: 0.5 m/s
16%
13:00
26°
1018.7 hPa 4.1 mm
43%
17.8°
2
Windvlaag: 0.6 m/s
14% warningclass
14:00
25°
1018.8 hPa 4.4 mm
90%
19.8°
2
Windvlaag: 0.7 m/s
53% warningclass
15:00
25°
1018.2 hPa
90%
20.0°
2
Windvlaag: 0.9 m/s
48%
16:00
24°
1017.9 hPa 4.7 mm
97%
19.6°
1
Windvlaag: 0.8 m/s
53%
17:00
24°
1018.1 hPa 3.1 mm
100%
20.3°
1
Windvlaag: 0.7 m/s
71% warningclass
18:00
23°
1018.1 hPa 5.3 mm
97%
20.3°
0
Windvlaag: 0.4 m/s
69%
19:00
21°
1018.4 hPa 5.6 mm
100%
20.7°
1
Windvlaag: 1 m/s
73% warningclass
20:00
20°
1018.4 hPa 6.4 mm
100%
20.1°
1
Windvlaag: 1.1 m/s
83% warningclass
21:00
20°
1018.5 hPa
51%
19.3°
1
Windvlaag: 1.9 m/s
76% warningclass
22:00
19°
1018.4 hPa
47%
18.8°
1
Windvlaag: 5.9 m/s
50%
23:00
19°
1018.3 hPa
74%
17.9°
1
Windvlaag: 7.8 m/s
42%
 06:18     19:56    Daglengte: 13:38 Dinsdag 27 Aug
00:00
18°
1018.3 hPa
26%
17.2°
1
Windvlaag: 9.4 m/s
37%
01:00
17°
1017.9 hPa
21%
16.4°
1
Windvlaag: 9.8 m/s
12%
02:00
17°
1017.8 hPa
21%
15.7°
1
Windvlaag: 1.4 m/s
7%
03:00
17°
1017.6 hPa 16.9 mm
100%
16.1°
2
Windvlaag: 10.4 m/s
10%
04:00
18°
1017.6 hPa 16.9 mm
100%
16.2°
2
Windvlaag: 9.6 m/s
9%
05:00
18°
1017.6 hPa 16.9 mm
100%
16.3°
2
Windvlaag: 8.8 m/s
6%
Temp/Neerslag /Baro Onweer/Dauwpunt
    Temp Baro Neerslag Dauwpunt Wind Bewolking  
 06:14     20:02    Daglengte: 13:48 Vandaag
08:00
17°
1021.5 hPa   15.3°
1
54%
11:00
25°
1020.8 hPa   17.8°
1
35%
14:00
26°
1019.7 hPa   18.9°
1
60%
17:00
26°
1019.0 hPa 0.9 mm 17.7°
1
52% warningclass
20:00
21°
1019.6 hPa 2.4 mm 19.4°
1
63% warningclass
23:00
19°
1019.9 hPa   16.6°
1
47%
 06:16     20:00    Daglengte: 13:44 Morgen
02:00
17°
1019.8 hPa   15.3°
1
50%
05:00
16°
1019.9 hPa   14.3°
1
45%
08:00
19°
1020.3 hPa   15.7°
1
17%
11:00
25°
1019.8 hPa   15.4°
0
23%
14:00
26°
1019.1 hPa   18.5°
1
22%
17:00
24°
1018.8 hPa 3.6 mm 18.8°
1
44% warningclass
20:00
21°
1020.1 hPa 4.3 mm 18.4°
1
53%
23:00
18°
1020.8 hPa   17.3°
1
56%
 06:17     19:58    Daglengte: 13:41 Maandag 26 Aug
02:00
17°
1020.2 hPa   15.6°
1
28%
05:00
16°
1020.2 hPa   14.7°
1
7%
08:00
18°
1020.3 hPa   16.4°
1
17%
11:00
25°
1019.8 hPa   17.6°
0
9%
14:00
25°
1018.8 hPa 8.4 mm 19.8°
2
53% warningclass
17:00
24°
1018.1 hPa 7.8 mm 20.3°
1
71% warningclass
20:00
20°
1018.4 hPa 17.3 mm 20.1°
1
83% warningclass
23:00
19°
1018.3 hPa   17.9°
1
42%
 06:18     19:56    Daglengte: 13:38 Dinsdag 27 Aug
02:00
17°
1017.8 hPa   15.7°
1
7%
05:00
18°
1017.6 hPa 50.6 mm 16.3°
2
6%
08:00
19°
1017.8 hPa 50.6 mm 17.0°
2
1%
11:00
25°
1017.0 hPa 12.3 mm 19.0°
2
19%
14:00
27°
1016.6 hPa 12.4 mm 19.5°
2
29%
17:00
24°
1016.1 hPa 14.4 mm 21.1°
1
28%
20:00
22°
1015.8 hPa 15.6 mm 21.3°
1
28%
23:00
20°
1016.2 hPa 15.6 mm 18.8°
1
17%
 06:20     19:54    Daglengte: 13:34 Woensdag 28 Aug
02:00
19°
1016.4 hPa 15.6 mm 16.3°
2
6%
05:00
19°
1016.5 hPa 15.6 mm 16.3°
2
5%
08:00
19°
1016.7 hPa 15.6 mm 16.5°
2
4%
11:00
24°
1015.5 hPa 15.6 mm 17.0°
1
12%
14:00
29°
1014.3 hPa 15.8 mm 15.5°
1
21%
17:00
25°
1014.1 hPa 18.0 mm 20.0°
1
22%
20:00
22°
1014.1 hPa 20.8 mm 21.4°
1
24%
23:00
20°
1014.9 hPa 25.4 mm 18.8°
1
15%
 06:21     19:52    Daglengte: 13:31 Donderdag 29 Aug
02:00
18°
1015.5 hPa 28.7 mm 16.2°
2
7%
05:00
19°
1016.1 hPa 28.8 mm 16.3°
2
5%
08:00
19°
1016.7 hPa 28.8 mm 16.7°
2
3%
11:00
22°
1016.9 hPa 29.0 mm 18.5°
1
39%
14:00
24°
1017.0 hPa 33.0 mm 20.4°
1
75%
17:00
22°
1017.8 hPa 39.3 mm 19.9°
1
82%
20:00
19°
1018.6 hPa 42.2 mm 18.9°
1
90%
23:00
19°
1019.4 hPa 42.3 mm 18.6°
1
84%
 06:22     19:50    Daglengte: 13:28 Vrijdag 30 Aug
02:00
18°
1020.1 hPa 42.3 mm 18.4°
1
78%
05:00
18°
1020.7 hPa 42.3 mm 18.1°
1
85%
08:00
19°
1021.4 hPa 42.3 mm 18.1°
1
92%
11:00
21°
1021.2 hPa 42.3 mm 19.3°
1
89%
14:00
22°
1020.9 hPa 42.4 mm 20.3°
1
86%
17:00
20°
1021.1 hPa 46.6 mm 19.5°
1
84%
20:00
19°
1021.5 hPa 50.5 mm 18.1°
1
82%
23:00
18°
1021.7 hPa 51.1 mm 17.4°
1
56%
 06:24     19:48    Daglengte: 13:24 Zaterdag 31 Aug
02:00
17°
1021.8 hPa 52.6 mm 16.7°
1
29%
05:00
17°
1021.7 hPa   16.9°
1
40%
08:00
18°
1021.6 hPa 105.1 mm 17.3°
1
50%
14:00
26°
1018.3 hPa 105.1 mm 18.3°
2
21%
20:00
21°
1017.6 hPa 109.9 mm 19.5°
1
82%
 06:25     19:46    Daglengte: 13:21 Zondag 01 Sep
02:00
18°
1017.0 hPa 113.4 mm 15.6°
2
1%
08:00
18°
1017.2 hPa 113.5 mm 16.2°
2
34%
14:00
26°
1016.9 hPa 114.9 mm 18.6°
2
61%
20:00
20°
1018.1 hPa 127.1 mm 19.5°
1
52%
 06:26     19:44    Daglengte: 13:18 Maandag 02 Sep
02:00
17°
1019.3 hPa 128.3 mm 16.0°
1
7%
08:00
18°
1020.2 hPa 128.3 mm 16.4°
2
5%
14:00
26°
1019.2 hPa 128.4 mm 17.5°
0
83%
20:00
21°
1016.6 hPa 128.7 mm 16.4°
3
0%
 06:28     19:42    Daglengte: 13:14 Dinsdag 03 Sep
02:00
15°
1016.7 hPa 2.1 mm 13.8°
1
49%
08:00
15°
1017.2 hPa 1.6 mm 13.5°
0
54%
14:00
21°
1016.1 hPa 2.7 mm 15.3°
1
56%
20:00
15°
1016.2 hPa 3.8 mm 14.0°
1
59%
 06:29     19:40    Daglengte: 13:11 Woensdag 04 Sep
02:00
13°
1017.1 hPa 4.1 mm 12.3°
0
60%
08:00
14°
1017.2 hPa 3.2 mm 12.3°
0
62%
14:00
19°
1016.6 hPa 2.6 mm 13.6°
1
63%
20:00
14°
1017.1 hPa 2.9 mm 12.5°
1
67%
 06:31     19:38    Daglengte: 13:07 Donderdag 05 Sep
02:00
12°
1018.2 hPa 1.7 mm 11.0°
1
56%
08:00
13°
1018.4 hPa 1.3 mm 11.3°
0
56%
14:00
19°
1017.2 hPa 1.0 mm 12.7°
1
51%
20:00
13°
1017.5 hPa 1.3 mm 12.0°
1
48%
 06:32     19:36    Daglengte: 13:04 Vrijdag 06 Sep
02:00
11°
1018.6 hPa 2.5 mm 10.3°
0
52%
08:00
12°
1018.7 hPa 2.2 mm 10.4°
1
55%
14:00
18°
1017.6 hPa 1.7 mm 11.9°
2
53%
20:00
13°
1018.1 hPa 2.1 mm 11.5°
1
48%
 06:33     19:34    Daglengte: 13:01 Zaterdag 07 Sep
02:00
11°
1019.3 hPa 1.7 mm 9.9°
0
45%
08:00
12°
1019.3 hPa 1.1 mm 10.6°
0
44%
14:00
19°
1017.5 hPa 1.1 mm 12.0°
1
42%
20:00
13°
1017.9 hPa 1.3 mm 11.8°
1
38%
 06:35     19:32    Daglengte: 12:57 Zondag 08 Sep
02:00
11°
1019.1 hPa 0.7 mm 9.8°
1
38%
  CAPE Lifted Index Hail Supercell Tornado SRH 3km CL BTM PRES CL TOP PRES Swiss DWD icon SMHI TS
 06:14     20:02    Daglengte: 13:48 Vandaag
06:00 0 J/kg -1.1 K 0 % 0 % 0 % 0 m²/s² 0 0 0.34 2
07:00 0 J/kg -1.4 K 0 % 0 % 0 % 0 m²/s² 0 0 -0.11 3
08:00 231 J/kg -2.2 K 0 % 0 % 0 % 0 m²/s² 0 0 -1.03 3
09:00 699 J/kg -3.2 K 0 % 0 % 0 % 0 m²/s² 0 0 -1.82 3
10:00 963 J/kg -3.9 K 0 % 0 % 0 % 0 m²/s² 0 0 -2.46 2
11:00 974 J/kg -4.1 K 0 % 0 % 0 % 0 m²/s² 0 0 -2.72 3
12:00 1241 J/kg -4.9 K 0 % 0 % 0 % 0 m²/s² 0 0 -3.67 3
13:00 1412 J/kg -5.5 K 0 % 0 % 0 % 0 m²/s² 0 0 -4 3
14:00 1458 J/kg -5.6 K 0 % 0 % 0 % 0 m²/s² 0 0 -4.04 3
15:00 1573 J/kg -5.7 K 0 % 0 % 0 % 0 m²/s² 0 0 -4.59 3
16:00 1792 J/kg -6.2 K 0 % 0 % 0 % 0 m²/s² 0 0 -4.64 80
17:00 1713 J/kg -6.1 K 0 % 0 % 0 % 0 m²/s² 0 0 -4.6 80
18:00 1824 J/kg -6.0 K 0 % 0 % 0 % 0 m²/s² 0 0 -4.38 3
19:00 1840 J/kg -6.3 K 0 % 0 % 0 % 0 m²/s² 0 0 -4.89 3
20:00 1383 J/kg -4.9 K 0 % 0 % 0 % 0 m²/s² 0 0 -3.82 80
21:00 1116 J/kg -4.6 K 0 % 0 % 0 % 0 m²/s² 0 0 -3.52 81
22:00 669 J/kg -4.0 K 0 % 0 % 0 % 0 m²/s² 0 0 -2.92 3
23:00 395 J/kg -2.7 K 0 % 0 % 0 % 0 m²/s² 0 0 -1.89 3
 06:16     20:00    Daglengte: 13:44 Morgen
00:00 170 J/kg -2.2 K 0 % 0 % 0 % 0 m²/s² 0 0 -1.24 3
01:00 313 J/kg -3.4 K 0 % 0 % 0 % 0 m²/s² 0 0 -1.72 3
02:00 384 J/kg -3.2 K 0 % 0 % 0 % 0 m²/s² 0 0 -2.03 3
03:00 473 J/kg -3.4 K 0 % 0 % 0 % 0 m²/s² 0 0 -2.38 3
04:00 502 J/kg -3.6 K 0 % 0 % 0 % 0 m²/s² 0 0 -2.58 2
05:00 470 J/kg -3.5 K 0 % 0 % 0 % 0 m²/s² 0 0 -2.48 3
06:00 284 J/kg -2.5 K 0 % 0 % 0 % 0 m²/s² 0 0 -1.54 2
07:00 137 J/kg -1.8 K 0 % 0 % 0 % 0 m²/s² 0 0 -0.48 2
08:00 424 J/kg -2.6 K 0 % 0 % 0 % 0 m²/s² 0 0 -0.53 1
09:00 898 J/kg -4.1 K 0 % 0 % 0 % 0 m²/s² 0 0 -2.03 3
10:00 1117 J/kg -4.6 K 0 % 0 % 0 % 0 m²/s² 0 0 -2.98 2
11:00 1050 J/kg -4.0 K 0 % 0 % 0 % 0 m²/s² 0 0 -2.74 3
12:00 1178 J/kg -3.9 K 0 % 0 % 0 % 0 m²/s² 0 0 -3.03 3
13:00 1505 J/kg -5.0 K 0 % 0 % 0 % 0 m²/s² 0 0 -4.52 1
14:00 1385 J/kg -4.8 K 0 % 0 % 0 % 0 m²/s² 0 0 -4.68 3
15:00 1375 J/kg -4.7 K 0 % 0 % 0 % 0 m²/s² 0 0 -3.2 80
16:00 1858 J/kg -6.1 K 0 % 0 % 0 % 0 m²/s² 0 0 -5.08 80
17:00 1539 J/kg -5.1 K 0 % 0 % 0 % 0 m²/s² 0 0 -4.23 80
18:00 1414 J/kg -4.7 K 0 % 0 % 0 % 0 m²/s² 0 0 -4.22 3
19:00 791 J/kg -3.7 K 0 % 0 % 0 % 0 m²/s² 0 0 -3.16 80
20:00 567 J/kg -2.8 K 0 % 0 % 0 % 0 m²/s² 0 0 -1.87 80
21:00 210 J/kg -1.6 K 0 % 0 % 0 % 0 m²/s² 0 0 -0.82 3
22:00 69 J/kg -1.3 K 0 % 0 % 0 % 0 m²/s² 0 0 -0.91 3
23:00 0 J/kg -1.8 K 0 % 0 % 0 % 0 m²/s² 0 0 -0.72 3
 06:17     19:58    Daglengte: 13:41 Maandag 26 Aug
00:00 0 J/kg -2.4 K 0 % 0 % 0 % 0 m²/s² 0 0 -0.6 3
01:00 0 J/kg -2.2 K 0 % 0 % 0 % 0 m²/s² 0 0 -0.58 3
02:00 0 J/kg -2.7 K 0 % 0 % 0 % 0 m²/s² 0 0 -2.01 1
03:00 0 J/kg -2.4 K 0 % 0 % 0 % 0 m²/s² 0 0 -2.1 3
04:00 0 J/kg -1.3 K 0 % 0 % 0 % 0 m²/s² 0 0 -0.76 1
05:00 78 J/kg -1.4 K 0 % 0 % 0 % 0 m²/s² 0 0 -0.83 1
06:00 36 J/kg -1.6 K 0 % 0 % 0 % 0 m²/s² 0 0 -0.19 1
07:00 81 J/kg -2.5 K 0 % 0 % 0 % 0 m²/s² 0 0 -1.21 3
08:00 206 J/kg -1.6 K 0 % 0 % 0 % 0 m²/s² 0 0 -0.25 2
09:00 653 J/kg -2.8 K 0 % 0 % 0 % 0 m²/s² 0 0 -1.18 2
10:00 1113 J/kg -4.0 K 0 % 0 % 0 % 0 m²/s² 0 0 -3.22 0
11:00 1392 J/kg -4.6 K 0 % 0 % 0 % 0 m²/s² 0 0 -3.88 1
12:00 1647 J/kg -5.3 K 0 % 0 % 0 % 0 m²/s² 0 0 -4.52 2
13:00 1889 J/kg -5.8 K 0 % 0 % 0 % 0 m²/s² 0 0 -5.11 0
14:00 1490 J/kg -5.0 K 0 % 0 % 0 % 0 m²/s² 0 0 -4.13 2
15:00 686 J/kg -2.6 K 0 % 0 % 0 % 0 m²/s² 0 0 -1.52 2
16:00 678 J/kg -2.7 K 0 % 0 % 0 % 0 m²/s² 0 0 -1.68 3
17:00 569 J/kg -2.8 K 0 % 0 % 0 % 0 m²/s² 0 0 -2.02 80
18:00 774 J/kg -2.5 K 0 % 0 % 0 % 0 m²/s² 0 0 -1.9 80
19:00 77 J/kg -1.6 K 0 % 0 % 0 % 0 m²/s² 0 0 -1.21 95
20:00 2 J/kg -0.8 K 0 % 0 % 0 % 0 m²/s² 0 0 0.19 95
21:00 0 J/kg -0.7 K 0 % 0 % 0 % 0 m²/s² 0 0 0.02 95
22:00 25 J/kg -0.6 K 0 % 0 % 0 % 0 m²/s² 0 0 -0.15 80
23:00 0 J/kg 0.0 K 0 % 0 % 0 % 0 m²/s² 0 0 0.81 3
 06:18     19:56    Daglengte: 13:38 Dinsdag 27 Aug
00:00 0 J/kg -0.4 K 0 % 0 % 0 % 0 m²/s² 0 0 0.41 3
01:00 1 J/kg -0.3 K 0 % 0 % 0 % 0 m²/s² 0 0 0.78 2
02:00 0 J/kg -0.7 K 0 % 0 % 0 % 0 m²/s² 0 0 0.38 1
03:00 0 J/kg -0.7 K 0 % 0 % 0 % 0 m²/s² 0 0 0.47
04:00 0 J/kg -1.1 K 0 % 0 % 0 % 0 m²/s² 0 0 0.04
05:00 0 J/kg -1.0 K 0 % 0 % 0 % 0 m²/s² 0 0 -0.04
Temp Baro Wind Neerslag
  EWN Forecast EWN WRFDA DWD ICON FMI HIRLAM MET Norway GFS
 06:14     20:02    Daglengte: 13:48 Vandaag
08:00 17.4° 1021.5 hPa 1.0 m/s 0.0 mm 22.1° 1020.4 hPa 3.6 m/s 0.0 mm 16.5° 1021.3 hPa 0.8 m/s -2.0 mm 16.9° 1023.4 hPa 0.5 m/s 0.0 mm 19.5° 1021.4 hPa 1.4 m/s 0.0 mm 18.5° 1021.9 hPa 1.4 m/s
11:00 25.0° 1020.8 hPa 0.8 m/s 0.0 mm 26.4° 1020.8 hPa 0.8 m/s 0.0 mm 22.9° 1020.9 hPa 0.6 m/s 0.0 mm 25.7° 1021.8 hPa 0.9 m/s 0.0 mm 25.4° 1020.4 hPa 0.8 m/s 0.0 mm 26.0° 1021.6 hPa 0.9 m/s
14:00 25.8° 1019.7 hPa 0.9 m/s 0.0 mm 27.7° 1019.9 hPa 1.8 m/s 3.0 mm 25.8° 1018.9 hPa 0.8 m/s 0.0 mm 25.1° 1021.4 hPa 1.0 m/s 0.0 mm 25.8° 1019.6 hPa 0.8 m/s 0.3 mm 28.5° 1019.9 hPa 1.7 m/s
17:00 25.9° 1019.0 hPa 1.3 m/s 0.9 mm 27.2° 1019.0 hPa 1.7 m/s 7.0 mm 24.1° 1018.6 hPa 0.8 m/s 0.3 mm 26.6° 1020.2 hPa 2.1 m/s 0.0 mm 26.2° 1018.8 hPa 1.1 m/s 0.0 mm 25.1° 1019.0 hPa 1.4 m/s
20:00 21.5° 1019.6 hPa 0.8 m/s 2.4 mm 21.6° 1019.0 hPa 3.0 m/s 10.8 mm 19.8° 1019.5 hPa 0.5 m/s 1.8 mm 22.4° 1020.6 hPa 1.6 m/s 0.0 mm 21.8° 1019.5 hPa 0.6 m/s 0.0 mm 20.8° 1019.2 hPa 1.2 m/s
23:00 18.9° 1019.9 hPa 1.2 m/s 0.0 mm 19.6° 1020.6 hPa 3.3 m/s 12.5 mm 17.7° 1019.6 hPa 0.8 m/s 0.1 mm 19.5° 1021.0 hPa 1.6 m/s 0.0 mm 19.2° 1019.5 hPa 1.2 m/s 0.0 mm 17.8° 1020.0 hPa 2.3 m/s
 06:16     20:00    Daglengte: 13:44 Morgen
02:00 17.4° 1019.8 hPa 1.4 m/s 0.0 mm 18.2° 1019.5 hPa 3.1 m/s 12.7 mm 16.1° 1019.7 hPa 1.1 m/s 0.0 mm 18.0° 1021.0 hPa 1.4 m/s 0.0 mm 17.7° 1019.7 hPa 1.6 m/s 0.0 mm 16.7° 1020.0 hPa 2.3 m/s
05:00 16.1° 1019.9 hPa 1.2 m/s 0.0 mm 17.8° 1019.4 hPa 2.7 m/s 12.7 mm 14.9° 1019.5 hPa 1.1 m/s 0.0 mm 16.1° 1021.5 hPa 1.1 m/s 0.0 mm 16.8° 1019.8 hPa 1.5 m/s 0.0 mm 16.1° 1019.6 hPa 2.0 m/s
08:00 18.8° 1020.3 hPa 1.1 m/s 0.0 mm 22.3° 1019.0 hPa 3.8 m/s 12.8 mm 16.8° 1020.4 hPa 0.7 m/s 0.0 mm 19.3° 1021.4 hPa 0.8 m/s 0.0 mm 19.2° 1020.0 hPa 1.6 m/s 0.0 mm 19.1° 1019.5 hPa 1.6 m/s
11:00 25.3° 1019.8 hPa 0.4 m/s 0.0 mm 27.4° 1019.7 hPa 2.1 m/s 12.8 mm 22.2° 1019.6 hPa 0.3 m/s 0.0 mm 29.2° 1019.6 hPa 0.2 m/s 0.0 mm 25.5° 1019.8 hPa 0.3 m/s 0.0 mm 26.8° 1019.4 hPa 0.9 m/s
14:00 25.9° 1019.1 hPa 1.3 m/s 0.0 mm 24.5° 1019.6 hPa 4.2 m/s 15.8 mm 25.3° 1018.3 hPa 1.0 m/s 0.0 mm 34.3° 1018.4 hPa 0.4 m/s 0.0 mm 25.1° 1019.4 hPa 1.8 m/s 1.4 mm 28.1° 1018.4 hPa 1.8 m/s
17:00 24.5° 1018.8 hPa 0.9 m/s 3.6 mm 24.8° 1018.7 hPa 4.0 m/s 20.5 mm 21.1° 1018.5 hPa 0.7 m/s 1.5 mm 32.9° 1018.0 hPa 0.2 m/s 0.0 mm 23.8° 1019.1 hPa 0.8 m/s 0.8 mm 25.8° 1017.8 hPa 1.4 m/s
20:00 20.7° 1020.1 hPa 1.0 m/s 4.3 mm 21.5° 1019.2 hPa 3.2 m/s 27.3 mm 18.5° 1020.1 hPa 1.2 m/s 0.1 mm 23.9° 1020.3 hPa 1.0 m/s 0.0 mm 20.5° 1020.3 hPa 0.6 m/s 0.7 mm 20.4° 1018.7 hPa 0.6 m/s
23:00 18.1° 1020.8 hPa 0.9 m/s 0.0 mm 20.3° 1020.6 hPa 2.9 m/s 29.7 mm 16.9° 1020.9 hPa 0.7 m/s 0.0 mm 18.1° 1020.8 hPa 0.8 m/s 0.0 mm 17.8° 1020.4 hPa 2.0 m/s
 06:17     19:58    Daglengte: 13:41 Maandag 26 Aug
02:00 16.6° 1020.2 hPa 0.9 m/s 0.0 mm 17.9° 1019.8 hPa 2.0 m/s 29.8 mm 15.9° 1020.0 hPa 0.2 m/s 0.0 mm 16.7° 1020.2 hPa 1.0 m/s 0.0 mm 16.5° 1020.4 hPa 1.9 m/s
05:00 15.8° 1020.2 hPa 1.1 m/s 0.0 mm 19.3° 1020.4 hPa 4.1 m/s 30.1 mm 14.4° 1020.2 hPa 0.5 m/s 0.0 mm 15.8° 1020.1 hPa 1.0 m/s 0.0 mm 16.0° 1020.0 hPa 1.6 m/s
08:00 18.4° 1020.3 hPa 1.3 m/s 0.0 mm 21.4° 1019.1 hPa 2.3 m/s 34.3 mm 16.1° 1020.6 hPa 0.3 m/s 0.0 mm 18.9° 1020.3 hPa 1.5 m/s 0.0 mm 18.8° 1019.8 hPa 1.5 m/s
11:00 24.6° 1019.8 hPa 0.5 m/s 0.0 mm 25.3° 1019.4 hPa 2.0 m/s 34.5 mm 21.5° 1019.9 hPa 0.3 m/s 0.0 mm 25.2° 1019.8 hPa 0.3 m/s 0.0 mm 27.1° 1019.0 hPa 0.8 m/s
14:00 24.8° 1018.8 hPa 1.7 m/s 8.4 mm 23.2° 1019.1 hPa 1.7 m/s 35.8 mm 24.4° 1018.3 hPa 1.1 m/s 0.0 mm 25.5° 1018.8 hPa 1.8 m/s 0.6 mm 28.0° 1018.0 hPa 2.1 m/s
17:00 23.6° 1018.1 hPa 1.0 m/s 7.8 mm 26.1° 1017.9 hPa 2.8 m/s 39.2 mm 22.1° 1017.9 hPa 0.8 m/s 0.7 mm 23.5° 1018.4 hPa 0.7 m/s 1.0 mm 26.6° 1017.0 hPa 1.6 m/s
20:00 20.4° 1018.4 hPa 1.0 m/s 17.3 mm 20.2° 1017.9 hPa 4.5 m/s 44.6 mm 18.8° 1019.1 hPa 0.8 m/s 3.7 mm 21.0° 1018.3 hPa 0.5 m/s 0.0 mm 21.0° 1017.5 hPa 1.2 m/s
23:00 18.7° 1018.3 hPa 1.1 m/s 0.0 mm 19.5° 1018.3 hPa 3.0 m/s 50.6 mm 16.9° 1019.4 hPa 0.8 m/s 0.0 mm 18.9° 1018.0 hPa 0.9 m/s 18.1° 1018.8 hPa 2.1 m/s
 06:18     19:56    Daglengte: 13:38 Dinsdag 27 Aug
02:00 16.9° 1017.8 hPa 1.5 m/s 0.0 mm 19.1° 1017.1 hPa 3.9 m/s 50.6 mm 15.6° 1018.7 hPa 0.9 m/s 0.0 mm 16.9° 1017.7 hPa 1.3 m/s 17.0° 1018.5 hPa 2.1 m/s
05:00 18.0° 1017.6 hPa 1.8 m/s 50.6 mm 18.9° 1017.0 hPa 3.9 m/s 50.6 mm 17.9° 1017.8 hPa 1.5 m/s 16.5° 1018.4 hPa 1.9 m/s
08:00 19.4° 1017.8 hPa 1.9 m/s 50.6 mm 22.4° 1017.5 hPa 3.3 m/s 50.6 mm 18.9° 1017.8 hPa 1.7 m/s 19.4° 1018.7 hPa 1.5 m/s
11:00 24.6° 1017.0 hPa 1.6 m/s 12.3 mm 24.3° 1016.9 hPa 1.7 m/s 28.0° 1018.2 hPa 0.8 m/s 12.3 mm
14:00 27.2° 1016.6 hPa 1.7 m/s 12.4 mm 27.0° 1016.5 hPa 1.7 m/s 29.6° 1017.4 hPa 1.7 m/s 12.4 mm
17:00 24.5° 1016.1 hPa 1.2 m/s 14.4 mm 24.3° 1016.1 hPa 1.2 m/s 26.1° 1016.4 hPa 1.2 m/s 14.4 mm
20:00 21.6° 1015.8 hPa 0.8 m/s 15.6 mm 21.6° 1015.7 hPa 0.8 m/s 21.3° 1017.3 hPa 1.3 m/s 15.6 mm
23:00 20.1° 1016.2 hPa 1.3 m/s 15.6 mm 20.2° 1016.0 hPa 1.2 m/s 18.7° 1018.7 hPa 2.2 m/s 15.6 mm
 06:20     19:54    Daglengte: 13:34 Woensdag 28 Aug
02:00 18.8° 1016.4 hPa 1.7 m/s 15.6 mm 18.9° 1016.2 hPa 1.6 m/s 17.8° 1018.6 hPa 2.3 m/s 15.6 mm
05:00 18.6° 1016.5 hPa 1.9 m/s 15.6 mm 18.8° 1016.4 hPa 1.9 m/s 17.2° 1018.4 hPa 2.1 m/s 15.6 mm
08:00 18.7° 1016.7 hPa 2.1 m/s 15.6 mm 18.6° 1016.5 hPa 2.1 m/s 19.9° 1018.6 hPa 1.7 m/s 15.6 mm
11:00 24.0° 1015.5 hPa 1.4 m/s 15.6 mm 23.6° 1015.3 hPa 1.5 m/s 28.3° 1017.6 hPa 0.6 m/s 15.6 mm
14:00 28.7° 1014.3 hPa 0.9 m/s 15.8 mm 28.6° 1014.1 hPa 0.8 m/s 29.2° 1016.0 hPa 1.8 m/s 15.8 mm
17:00 25.5° 1014.1 hPa 0.7 m/s 18.0 mm 25.4° 1014.0 hPa 0.7 m/s 26.3° 1015.2 hPa 1.3 m/s 18.0 mm
20:00 22.1° 1014.1 hPa 0.6 m/s 20.8 mm 22.2° 1014.0 hPa 0.6 m/s 21.3° 1015.6 hPa 0.3 m/s 20.8 mm
23:00 20.1° 1014.9 hPa 1.1 m/s 25.4 mm 20.2° 1014.7 hPa 1.1 m/s 18.9° 1017.1 hPa 1.5 m/s 25.4 mm
 06:21     19:52    Daglengte: 13:31 Donderdag 29 Aug
02:00 18.3° 1015.5 hPa 1.5 m/s 28.7 mm 18.3° 1015.4 hPa 1.5 m/s 18.1° 1016.7 hPa 1.7 m/s 28.7 mm
05:00 18.5° 1016.1 hPa 1.6 m/s 28.8 mm 18.6° 1016.0 hPa 1.6 m/s 16.9° 1016.4 hPa 1.5 m/s 28.8 mm
08:00 19.0° 1016.7 hPa 1.7 m/s 28.8 mm 19.0° 1016.7 hPa 1.7 m/s 19.3° 1016.5 hPa 1.4 m/s 28.8 mm
11:00 21.9° 1016.9 hPa 1.2 m/s 29.0 mm 21.4° 1017.0 hPa 1.2 m/s 26.2° 1016.2 hPa 1.3 m/s 29.0 mm
14:00 24.0° 1017.0 hPa 0.8 m/s 33.0 mm 23.9° 1017.2 hPa 0.7 m/s 25.5° 1015.2 hPa 1.6 m/s 33.0 mm
17:00 21.8° 1017.8 hPa 0.9 m/s 39.3 mm 21.5° 1018.0 hPa 0.9 m/s 24.3° 1014.6 hPa 0.3 m/s 39.3 mm
20:00 19.3° 1018.6 hPa 1.1 m/s 42.2 mm 19.2° 1018.9 hPa 1.2 m/s 20.1° 1015.6 hPa 0.3 m/s 42.2 mm
23:00 18.8° 1019.4 hPa 0.9 m/s 42.3 mm 18.9° 1019.6 hPa 0.8 m/s 18.1° 1016.8 hPa 1.6 m/s 42.3 mm
 06:22     19:50    Daglengte: 13:28 Vrijdag 30 Aug
02:00 18.5° 1020.1 hPa 0.6 m/s 42.3 mm 18.6° 1020.4 hPa 0.5 m/s 16.8° 1016.8 hPa 1.8 m/s 42.3 mm
05:00 18.4° 1020.7 hPa 0.6 m/s 42.3 mm 18.6° 1021.1 hPa 0.5 m/s 16.6° 1016.7 hPa 1.6 m/s 42.3 mm
08:00 18.5° 1021.4 hPa 0.6 m/s 42.3 mm 18.5° 1021.8 hPa 0.5 m/s 19.1° 1016.9 hPa 1.4 m/s 42.3 mm
11:00 20.6° 1021.2 hPa 0.8 m/s 42.3 mm 20.0° 1021.6 hPa 0.8 m/s 27.0° 1016.8 hPa 0.9 m/s 42.3 mm
14:00 22.0° 1020.9 hPa 1.1 m/s 42.4 mm 21.5° 1021.4 hPa 1.0 m/s 28.0° 1015.7 hPa 2.1 m/s 42.4 mm
17:00 20.5° 1021.1 hPa 0.9 m/s 46.6 mm 20.1° 1021.7 hPa 0.8 m/s 25.0° 1015.0 hPa 1.4 m/s 46.6 mm
20:00 18.7° 1021.5 hPa 0.7 m/s 50.5 mm 18.6° 1022.0 hPa 0.7 m/s 19.5° 1016.1 hPa 0.1 m/s 50.5 mm
23:00 17.8° 1021.7 hPa 0.7 m/s 51.1 mm 17.8° 1022.1 hPa 0.6 m/s 18.1° 1017.7 hPa 1.7 m/s 51.1 mm
 06:24     19:48    Daglengte: 13:24 Zaterdag 31 Aug
02:00 16.9° 1021.8 hPa 0.6 m/s 52.6 mm 16.9° 1022.2 hPa 0.5 m/s 17.3° 1017.8 hPa 1.7 m/s 52.6 mm
05:00 17.2° 1021.7 hPa 0.8 m/s 52.6 mm 17.2° 1022.0 hPa 0.7 m/s 16.4° 1017.6 hPa 1.6 m/s 52.6 mm
08:00 17.7° 1021.6 hPa 1.0 m/s 52.6 mm 17.6° 1021.9 hPa 0.9 m/s 19.0° 1018.6 hPa 1.5 m/s 52.6 mm
14:00 25.8° 1018.3 hPa 1.8 m/s 52.6 mm 25.5° 1018.4 hPa 1.8 m/s 28.7° 1017.5 hPa 1.9 m/s 52.6 mm
20:00 20.9° 1017.6 hPa 0.5 m/s 56.4 mm 20.9° 1017.5 hPa 0.5 m/s 20.7° 1018.3 hPa 0.7 m/s 56.3 mm
 06:25     19:46    Daglengte: 13:21 Zondag 01 Sep
02:00 17.8° 1017.0 hPa 1.6 m/s 56.7 mm 17.8° 1016.7 hPa 1.6 m/s 17.4° 1020.3 hPa 2.0 m/s 56.7 mm
08:00 18.2° 1017.2 hPa 2.1 m/s 56.7 mm 18.1° 1016.9 hPa 2.1 m/s 19.7° 1021.0 hPa 1.5 m/s 56.7 mm
14:00 25.7° 1016.9 hPa 1.6 m/s 58.1 mm 25.4° 1016.7 hPa 1.6 m/s 29.0° 1019.6 hPa 1.3 m/s 58.1 mm
20:00 19.9° 1018.1 hPa 1.1 m/s 64.1 mm 19.8° 1017.9 hPa 1.0 m/s 20.9° 1019.9 hPa 1.7 m/s 64.1 mm
 06:26     19:44    Daglengte: 13:18 Maandag 02 Sep
02:00 17.0° 1019.3 hPa 1.2 m/s 64.1 mm 16.9° 1019.1 hPa 1.1 m/s 17.9° 1021.0 hPa 2.3 m/s 64.1 mm
08:00 18.1° 1020.2 hPa 1.7 m/s 64.1 mm 18.0° 1020.2 hPa 1.7 m/s 19.5° 1020.2 hPa 2.2 m/s 64.1 mm
14:00 25.5° 1019.2 hPa 0.4 m/s 64.3 mm 25.1° 1019.3 hPa 0.3 m/s 30.2° 1017.6 hPa 1.4 m/s 64.3 mm
20:00 21.3° 1016.6 hPa 2.6 m/s 64.3 mm 21.3° 1016.6 hPa 2.6 m/s 64.3 mm
 06:28     19:42    Daglengte: 13:14 Dinsdag 03 Sep
02:00 14.9° 1016.7 hPa 0.7 m/s 2.1 mm
08:00 15.1° 1017.2 hPa 0.3 m/s 1.6 mm
14:00 21.1° 1016.1 hPa 1.0 m/s 2.7 mm
20:00 15.4° 1016.2 hPa 0.7 m/s 3.8 mm
 06:29     19:40    Daglengte: 13:11 Woensdag 04 Sep
02:00 13.3° 1017.1 hPa 0.3 m/s 4.1 mm
08:00 13.6° 1017.2 hPa 0.3 m/s 3.2 mm
14:00 18.9° 1016.6 hPa 1.1 m/s 2.6 mm
20:00 13.8° 1017.1 hPa 0.8 m/s 2.9 mm
 06:31     19:38    Daglengte: 13:07 Donderdag 05 Sep
02:00 12.0° 1018.2 hPa 0.6 m/s 1.7 mm
08:00 12.7° 1018.4 hPa 0.5 m/s 1.3 mm
14:00 19.1° 1017.2 hPa 1.3 m/s 1.0 mm
20:00 13.5° 1017.5 hPa 0.8 m/s 1.3 mm
 06:32     19:36    Daglengte: 13:04 Vrijdag 06 Sep
02:00 11.3° 1018.6 hPa 0.5 m/s 2.5 mm
08:00 12.0° 1018.7 hPa 0.6 m/s 2.2 mm
14:00 18.3° 1017.6 hPa 1.5 m/s 1.7 mm
20:00 12.8° 1018.1 hPa 0.8 m/s 2.1 mm
 06:33     19:34    Daglengte: 13:01 Zaterdag 07 Sep
02:00 10.6° 1019.3 hPa 0.5 m/s 1.7 mm
08:00 12.0° 1019.3 hPa 0.4 m/s 1.1 mm
14:00 19.4° 1017.5 hPa 1.3 m/s 1.1 mm
20:00 13.1° 1017.9 hPa 0.6 m/s 1.3 mm
 06:35     19:32    Daglengte: 12:57 Zondag 08 Sep
02:00 10.6° 1019.1 hPa 0.7 m/s 0.7 mm
FMI Hirlam - 7.5 km EWN WRFDA - 12 km DWD ICON - 7 km GFS - 25 km Basiskaart






























































Updatetijd (Europe/Amsterdam) Resolutie Lengte Stap
FMI Hirlam 01:00, 07:00, 13:00, 19:00 7.5 km 49h 1h
EWN WRFDA 04:00, 10:00, 16:00, 22:00 12 km 73h 1h
DWD ICON 23:45, 05:45, 11:45, 17:45 7 km 75h 1h
GFS 02:30, 08:30, 14:30, 20:30 25 km 237h 3h
30+ mm
25-30 mm
20-25 mm
15-20 mm
10-15 mm
6-10 mm
4-6 mm
2-4 mm
1-2 mm
0.5-1 mm
0.2-0.5 mm
0.1-0.2 mm
30+ mm
25-30 mm
20-25 mm
15-20 mm
10-15 mm
6-10 mm
4-6 mm
2-4 mm
1-2 mm
0.5-1 mm
0.2-0.5 mm
0.1-0.2 mm
Sneeuwval
Natte sneeuw
Hagel
Vorst
30+ mm
25-30 mm
20-25 mm
15-20 mm
10-15 mm
6-10 mm
4-6 mm
2-4 mm
1-2 mm
0.5-1 mm
0.2-0.5 mm
0.1-0.2 mm
Sneeuwval
Natte sneeuw
Hagel
Vorst
Onweer
50 mm
40 mm
30 mm
26 mm
22 mm
18 mm
14 mm
10 mm
9 mm
8 mm
7 mm
6 mm
5 mm
4.5 mm
4 mm
3.5 mm
3 mm
2.5 mm
2 mm
1.5 mm
1 mm
0.8 mm
0.6 mm
0.4 mm
0.2 mm
0.05 mm
35°
30°
25°
20°
15°
10°
-5°
-10°
-15°
-20°
-25°
-30°
-35°
33> m/s
29 m/s
25 m/s
21 m/s
17 m/s
14 m/s
11 m/s
8 m/s
5 m/s
3 m/s
0 m/s
2600 J/kg
2400 J/kg
2200 J/kg
2000 J/kg
1800 J/kg
1600 J/kg
1400 J/kg
1200 J/kg
1000 J/kg
800 J/kg
600 J/kg
400 J/kg
200 J/kg
70 dBZ
65 dBZ
60 dBZ
55 dBZ
50 dBZ
45 dBZ
40 dBZ
35 dBZ
30 dBZ
25 dBZ
20 dBZ
15 dBZ
10 dBZ
5 dBZ
-1 K
-2 K
-3 K
-4 K
-5 K
-6 K
-7 K
-8 K
-9 K
950 m²/s²
900 m²/s²
850 m²/s²
800 m²/s²
750 m²/s²
700 m²/s²
650 m²/s²
600 m²/s²
550 m²/s²
500 m²/s²
450 m²/s²
400 m²/s²
350 m²/s²
300 m²/s²
250 m²/s²
200 m²/s²
150 m²/s²
100 m²/s²
46 m/s
44 m/s
42 m/s
40 m/s
38 m/s
36 m/s
34 m/s
32 m/s
30 m/s
28 m/s
26 m/s
24 m/s
22 m/s
20 m/s
16 m/s
12 m/s
8 m/s
4 m/s
30 m/s
28 m/s
26 m/s
24 m/s
22 m/s
20 m/s
18 m/s
16 m/s
14 m/s
12 m/s
10 m/s
8 m/s
6 m/s
4 m/s
2 m/s
3.0
2.8
2.6
2.4
2.2
2.0
1.8
1.6
1.4
1.2
1.0
0.8
0.6
0.4
0.2
15
14
13
12
11
10
9
8
7
6
5
4
3
2
1
90%
80%
70%
60%
50%
40%
30%
20%
10%
42
40
38
36
34
32
30
28
26
24
22
20
18
16
14
12
90+ cm
80-90 cm
70-80 cm
60-70 cm
50-60 cm
40-50 cm
30-40 cm
20-30 cm
10-20 cm
1-10 cm
Sneeuwval
Natte sneeuw
Regen
>120 mm
115 mm
110 mm
105 mm
100 mm
95 mm
90 mm
85 mm
80 mm
75 mm
70 mm
65 mm
60 mm
55 mm
50 mm
45 mm
45 mm
40 mm
35 mm
30 mm
25 mm
20 mm
15 mm
10 mm
5 mm
0.1 mm
960 hPa
880 hPa
800 hPa
720 hPa
640 hPa
560 hPa